TimeCST,TemperatureF,Dew PointF,Humidity,Sea Level PressureIn,VisibilityMPH,Wind Direction,Wind SpeedMPH,Gust SpeedMPH,PrecipitationIn,Events,Conditions,WindDirDegrees,DateUTC
12:53 AM,33.1,15.1,48,30.01,10.0,South,3.5,-,N/A,,Clear,180,2012-11-29 06:53:00
1:53 AM,30.9,14.0,50,30.00,10.0,South,3.5,-,N/A,,Clear,170,2012-11-29 07:53:00
2:53 AM,26.1,12.0,55,30.00,10.0,SW,8.1,-,N/A,,Clear,220,2012-11-29 08:53:00
3:53 AM,30.9,10.9,43,29.99,10.0,WSW,8.1,-,N/A,,Clear,240,2012-11-29 09:53:00
4:53 AM,30.9,10.0,42,29.98,10.0,SW,6.9,-,N/A,,Clear,230,2012-11-29 10:53:00
5:53 AM,27.0,10.0,49,30.00,10.0,South,6.9,-,N/A,,Clear,190,2012-11-29 11:53:00
6:53 AM,28.0,10.9,49,30.01,10.0,SSW,6.9,-,N/A,,Clear,210,2012-11-29 12:53:00
7:53 AM,28.9,10.9,47,30.02,10.0,SW,5.8,-,N/A,,Clear,230,2012-11-29 13:53:00
8:53 AM,39.0,15.1,38,30.02,10.0,West,3.5,-,N/A,,Clear,260,2012-11-29 14:53:00
9:53 AM,50.0,14.0,24,30.01,10.0,WNW,8.1,-,N/A,,Clear,290,2012-11-29 15:53:00
10:53 AM,57.9,16.0,19,29.99,10.0,North,5.8,-,N/A,,Clear,10,2012-11-29 16:53:00
11:53 AM,68.0,17.1,14,29.95,10.0,North,5.8,-,N/A,,Clear,360,2012-11-29 17:53:00
12:53 PM,71.1,19.0,14,29.91,10.0,NW,8.1,-,N/A,,Clear,310,2012-11-29 18:53:00
1:53 PM,73.0,19.9,14,29.88,10.0,NNE,6.9,-,N/A,,Clear,20,2012-11-29 19:53:00
2:53 PM,75.9,12.9,9,29.87,10.0,WNW,6.9,18.4,N/A,,Clear,290,2012-11-29 20:53:00
3:53 PM,71.1,21.0,15,29.89,10.0,ENE,8.1,-,N/A,,Clear,60,2012-11-29 21:53:00
4:53 PM,68.0,21.0,17,29.90,10.0,NE,4.6,-,N/A,,Clear,50,2012-11-29 22:53:00
5:53 PM,63.0,21.0,20,29.94,10.0,NNE,4.6,-,N/A,,Clear,20,2012-11-29 23:53:00
6:53 PM,59.0,19.9,22,29.97,10.0,ESE,4.6,-,N/A,,Clear,110,2012-11-30 00:53:00
7:53 PM,55.0,19.0,24,29.98,10.0,Calm,Calm,-,N/A,,Clear,0,2012-11-30 01:53:00
8:53 PM,48.0,19.0,32,29.99,10.0,North,3.5,-,N/A,,Clear,360,2012-11-30 02:53:00
9:53 PM,45.0,19.0,36,29.97,10.0,Calm,Calm,-,N/A,,Clear,0,2012-11-30 03:53:00
10:53 PM,39.9,19.9,45,29.97,10.0,Calm,Calm,-,N/A,,Clear,0,2012-11-30 04:53:00
11:53 PM,41.0,19.0,41,29.96,10.0,WNW,9.2,-,N/A,,Clear,290,2012-11-30 05:53:00